Regional Weather Roundup
Issued by NWS

Home | Current Version | Previous Version | Graphics & Text | Print | Product List | Glossary On
Versions: 1 2 3 4 5 6 7 8 9 10 11 12 13 14 15 16 17 18 19 20 21 22 23 24 25 26 27 28 29 30 31 32 33 34 35 36 37 38 39 40 41 42 43 44 45 46 47 48 49 50
000
ASUS43 KLSX 262107
RWRMO

WEATHER SUMMARY FOR MISSOURI
NATIONAL WEATHER SERVICE SPRINGFIELD MO
300 PM CST THU FEB 26 2015

NOTE: "FAIR" INDICATES FEW OR NO CLOUDS BELOW 12,000 FEET WITH NO
       SIGNIFICANT WEATHER AND/OR OBSTRUCTIONS TO VISIBILITY.
       CURRENT SKY AND/OR WEATHER CONDITIONS ARE NOT AVAILABLE FOR
       CHILLICOTHE AND FARMINGTON.

MOZ001>031-035>038-043-044-053-054-262200-
...NORTHERN AND WESTERN MISSOURI...

CITY           SKY/WX    TMP DP  RH WIND       PRES   REMARKS
KANSAS CTY INT MOSUNNY   20   1  43 N18       30.42S WCI   5
KANSAS C DTWN  SUNNY     22   0  38 N12       30.44R WCI  10
LEE`S SUMMIT   PTSUNNY   22   2  42 N13G24    30.41R WCI  10
ST JOSEPH      MOSUNNY   18   0  45 N17       30.48S WCI   3
CHILLICOTHE      N/A     17   1  49 N8G20     30.45R WCI   7
KIRKSVILLE     SUNNY     16   0  49 N20       30.39R WCI  -1

$$
MOZ066>068-077>081-088>096-101>105-262200-
...SOUTHWEST MISSOURI...

CITY           SKY/WX    TMP DP  RH WIND       PRES   REMARKS
SPRINGFIELD    SUNNY     26   6  42 N15       30.29R WCI  14
JOPLIN         SUNNY     28   4  35 N16       30.37R WCI  16

$$
MOZ032>034-039>042-045>050-055>058-069>072-262200-
...CENTRAL MISSOURI...

CITY           SKY/WX    TMP DP  RH WIND       PRES   REMARKS
COLUMBIA       CLOUDY    24   7  48 N15G21    30.34R WCI  11
JEFFERSON CITY CLOUDY    23   5  46 NW12      30.36R WCI  12
ROLLA          CLOUDY    21   9  59 NW14      30.28R WCI   8
SEDALIA        SUNNY     22   5  48 N18G28    30.40R WCI   7
WHITEMAN AFB   MOSUNNY   21   2  44 N20       30.39R WCI   6
WARRENSBURG    MOSUNNY   21   3  45 NW12G23   30.42R WCI   9
OSAGE BEACH    PTSUNNY   25   7  46 NW10G21   30.34R WCI  15

$$
MOZ051-052-059>065-262200-
...EAST CENTRAL MISSOURI...

CITY           SKY/WX    TMP DP  RH WIND       PRES   REMARKS
ST LOUIS INTL  FLURRIES  23  13  65 NW18      30.31R WCI   9
SPIRIT OF STL  PTSUNNY   23  11  60 N13       30.32R WCI  11
ST CHARLES     CLOUDY    22  12  65 NW14      30.32R WCI   9

$$
MOZ072>076-082>087-097>100-106>115-262200-
...SOUTH CENTRAL AND SOUTHEAST MISSOURI...

CITY           SKY/WX    TMP DP  RH WIND       PRES   REMARKS
CAPE GIRARDEAU CLOUDY    26  18  71 N21       30.26R WCI  12
FARMINGTON     CLOUDY    21  14  73 N13G18    30.28R WCI   9
POPLAR BLUFF   CLOUDY    29  16  58 N16       30.25R WCI  17
WEST PLAINS    PTSUNNY   24  12  60 N16       30.26R WCI  11

$$


USA.gov is the U.S. government's official web portal to all federal, state and local government web resources and services.